STARLINK-32023, 60197

Orbit data source: Space-Track

STARLINK-32023, 60197 is a payload satellite owned by SpaceX/Seattle (US) in LEO that was launched on Wed, 03 Jul 2024 UTC via an FALCON 9 launch vehicle from the Air Force Eastern Test Range (AFETR). Payload-class satellites include a variety of spacecraft equipped with specific instruments for various scientific and technological missions. These include communications satellites like Starlink; space stations such as the ISS; scientific satellites like the Hubble; Earth observation satellites from companies like Planet Labs, Umbra, and HawkEye 360; GPS; miniature CubeSats for education and research; and military/defense satellites.

Loading next visibility...
Identifier
60197, 2024-124Q
Orbit
LEO
Country
Flag of USUS
Related business
Manufacturer
SpaceX/Seattle
Mission
Operational Commercial Communications
Bus & Motor
STARLINK V2M, Unknown motor
Mass
730 kg wet, ~700 kg dry
Launch date (UTC)
2024-07-03 (1 year ago)
Launch vehicle
FALCON 9
Launch site
Air Force Eastern Test Range (AFETR)
Object type
Payload
Rocket body
Debris
Shape & HBR
Box + 2 Pan, 14.5 m
Radar Cross Section
36.964 m², Large (>1 m²)

Expand to show TLE details & history
Last TLE update: 19 hours ago

TLE from 19 hours ago
0 STARLINK-32023
1 60197U 24124Q   25257.61450477 -.00000586  00000-0 -76624-5 0  9992
2 60197  53.1607  60.6424 0001027  84.9728 275.1390 15.30191861 67338
Epoch: 2025-09-14T14:44Z
TLE epoch observation values (Epoch: 2025-09-14T14:44:53.212Z)
Latitude
-0°
Longitude
-154.4103°
Altitude
476.076 km
Speed
7.629 km/s
True Right ascension
04h 02m 34s
True Declination
0° 00' 00"
Sunlit
Object was in full shadow at epoch
Visualization orbit readout
Latitude
Unknown
Longitude
Unknown
Altitude
Unknown
Speed
Unknown
Apparent Right ascension
Unknown
Apparent Declination
Unknown
Sunlit
N/A
Visualization observer readout
Local Sidereal Time
02:05:14
Azimuth
Unknown
Elevation
Unknown
Doppler factor
Unknown
Orbital elements
Apogee altitude
476.2 km
Perigee altitude
474.792 km
Semi-major axis
6,853.633 km
Eccentricity
0.0001
Inclination
53.1607°
RAAN
60.6424°
Arg. of periapsis
84.9728°
True anomaly
275.12728°
Mean anomaly
275.139°
Eccentric anomaly
275.13314°
Mean motion
3.82527 °/min
Orbital period
94.11 mins
BSTAR
-0.0000076624
Loading maneuver chart data...
Computing Atmospheric mass density...
Loading historical data...
Loading historical data...
Loading historical data...
Loading historical data...
Loading historical data...
Loading historical data...
Loading historical data...

Documentation

Showing up to 5 results
|